| time (UTC) | temp F | wind direction | speed MPH | gust MPH | rain 1hr in | rain 24hr in | rain mn in | humidity % | barometer mb |
| 20260905224413 | 59 | 0.0 | 0.0 | 0.00 | 0.00 | 0.00 | 10 | 1026.6 | |
| 20260905223912 | 59 | 0.0 | 0.0 | 0.00 | 0.00 | 0.00 | 10 | 1026.7 | |
| 20260905222412 | 59 | 0.0 | 0.0 | 0.00 | 0.00 | 0.00 | 10 | 1026.8 | |
| 20260905221912 | 60 | 0.0 | 0.0 | 0.00 | 0.00 | 0.00 | 10 | 1026.8 | |
| 20260905221411 | 60 | 0.0 | 0.0 | 0.00 | 0.00 | 0.00 | 10 | 1026.7 | |
| 20260905220412 | 60 | 0.0 | 0.0 | 0.00 | 0.00 | 0.00 | 10 | 1026.8 | |
| 20260905215912 | 60 | 0.0 | 0.0 | 0.00 | 0.00 | 0.00 | 10 | 1026.7 | |
| 20260905215412 | 60 | 0.0 | 0.0 | 0.00 | 0.00 | 0.00 | 10 | 1026.6 | |
| 20260905214412 | 60 | 0.0 | 0.0 | 0.00 | 0.00 | 0.00 | 10 | 1026.6 | |
| 20260905213912 | 60 | 0.0 | 0.0 | 0.00 | 0.00 | 0.00 | 10 | 1026.7 | |
| 20260905213411 | 61 | 0.0 | 0.0 | 0.00 | 0.00 | 0.00 | 10 | 1026.7 | |
| 20260905212412 | 61 | 0.0 | 0.0 | 0.00 | 0.00 | 0.00 | 10 | 1026.7 | |
| 20260905211911 | 61 | 0.0 | 0.0 | 0.00 | 0.00 | 0.00 | 10 | 1026.6 | |
| 20260905211411 | 61 | 0.0 | 0.0 | 0.00 | 0.00 | 0.00 | 10 | 1026.6 | |
| 20260905210912 | 61 | 0.0 | 0.0 | 0.00 | 0.00 | 0.00 | 10 | 1026.6 | |
| 20260905210412 | 62 | 0.0 | 0.0 | 0.00 | 0.00 | 0.00 | 10 | 1026.5 | |
| 20260905205911 | 62 | 0.0 | 0.0 | 0.00 | 0.00 | 0.00 | 10 | 1026.4 | |
| 20260905205411 | 62 | 0.0 | 0.0 | 0.00 | 0.00 | 0.00 | 10 | 1026.5 | |
| 20260905204911 | 62 | 0.0 | 0.0 | 0.00 | 0.00 | 0.00 | 10 | 1026.5 | |
| 20260905204411 | 62 | 0.0 | 0.0 | 0.00 | 0.00 | 0.00 | 10 | 1026.5 | |
| 20260905203413 | 63 | 0.0 | 0.0 | 0.00 | 0.00 | 0.00 | 10 | 1026.6 | |
| 20260905202912 | 63 | 0.0 | 0.0 | 0.00 | 0.00 | 0.00 | 10 | 1026.6 | |
| 20260905202413 | 63 | 0.0 | 0.0 | 0.00 | 0.00 | 0.00 | 10 | 1026.6 | |
| 20260905201912 | 63 | 0.0 | 0.0 | 0.00 | 0.00 | 0.00 | 10 | 1026.4 | |
| 20260905201412 | 63 | 0.0 | 0.0 | 0.00 | 0.00 | 0.00 | 10 | 1026.4 | |
| 20260905200912 | 64 | 0.0 | 0.0 | 0.00 | 0.00 | 0.00 | 10 | 1026.4 | |
| 20260905200411 | 64 | 0.0 | 0.0 | 0.00 | 0.00 | 0.00 | 10 | 1026.4 | |
| 20260905195913 | 64 | 0.0 | 0.0 | 0.00 | 0.00 | 0.00 | 10 | 1026.3 | |
| 20260905195412 | 64 | 0.0 | 0.0 | 0.00 | 0.00 | 0.00 | 10 | 1026.2 | |
| 20260905193911 | 65 | 0.0 | 0.0 | 0.00 | 0.00 | 0.00 | 10 | 1026.1 | |
| 20260905192912 | 65 | 0.0 | 0.0 | 0.00 | 0.00 | 0.00 | 10 | 1026.1 | |
| 20260905192412 | 65 | 0.0 | 0.0 | 0.00 | 0.00 | 0.00 | 10 | 1026.0 | |
| 20260905191911 | 66 | 0.0 | 0.0 | 0.00 | 0.00 | 0.00 | 10 | 1026.2 | |
| 20260905190912 | 66 | 0.0 | 0.0 | 0.00 | 0.00 | 0.00 | 10 | 1026.1 | |
| 20260905190412 | 66 | 0.0 | 0.0 | 0.00 | 0.00 | 0.00 | 10 | 1026.0 | |
| 20260905185912 | 66 | 0.0 | 0.0 | 0.00 | 0.00 | 0.00 | 10 | 1025.9 | |
| 20260905185411 | 66 | 0.0 | 0.0 | 0.00 | 0.00 | 0.00 | 10 | 1025.8 | |
| 20260905184412 | 67 | 0.0 | 0.0 | 0.00 | 0.00 | 0.00 | 10 | 1025.7 | |
| 20260905183912 | 68 | 0.0 | 0.0 | 0.00 | 0.00 | 0.00 | 10 | 1025.5 | |
| 20260905183411 | 68 | 0.0 | 0.0 | 0.00 | 0.00 | 0.00 | 98 | 1025.5 | |
| 20260905182912 | 69 | 0.0 | 0.0 | 0.00 | 0.00 | 0.00 | 93 | 1025.6 | |
| 20260905182412 | 69 | 0.0 | 0.0 | 0.00 | 0.00 | 0.00 | 89 | 1025.6 | |
| 20260905181911 | 70 | 0.0 | 0.0 | 0.00 | 0.00 | 0.00 | 86 | 1025.5 | |
| 20260905180912 | 71 | 0.0 | 0.0 | 0.00 | 0.00 | 0.00 | 79 | 1025.3 | |
| 20260905180412 | 72 | 0.0 | 0.0 | 0.00 | 0.00 | 0.00 | 75 | 1025.3 | |
| 20260905175911 | 72 | 0.0 | 0.0 | 0.00 | 0.00 | 0.00 | 71 | 1025.3 | |
| 20260905175412 | 73 | 0.0 | 0.0 | 0.00 | 0.00 | 0.00 | 67 | 1025.3 | |
| 20260905174912 | 74 | 0.0 | 0.0 | 0.00 | 0.00 | 0.00 | 63 | 1025.2 | |
| 20260905174413 | 75 | 0.0 | 0.0 | 0.00 | 0.00 | 0.00 | 60 | 1025.2 | |
| 20260905173911 | 76 | 0.0 | 0.0 | 0.00 | 0.00 | 0.00 | 56 | 1025.1 | |
| 20260905172911 | -27 | 0.0 | 0.0 | 0.00 | 0.00 | 0.00 | 100 | 762.7 | |
| 20260905172412 | 77 | 0.0 | 0.0 | 0.00 | 0.00 | 0.00 | 53 | 1025.1 | |
| 20260905171911 | 78 | 0.0 | 0.0 | 0.00 | 0.00 | 0.00 | 51 | 1025.1 | |
| 20260905171411 | 78 | 0.0 | 0.0 | 0.00 | 0.00 | 0.00 | 50 | 1025.2 | |
| 20260905170911 | 78 | 0.0 | 0.0 | 0.00 | 0.00 | 0.00 | 50 | 1025.1 | |
| 20260905170411 | 79 | 0.0 | 0.0 | 0.00 | 0.00 | 0.00 | 47 | 1025.1 | |
| 20260905165912 | 79 | 0.0 | 0.0 | 0.00 | 0.00 | 0.00 | 45 | 1024.9 | |
| 20260905165412 | 79 | 0.0 | 0.0 | 0.00 | 0.00 | 0.00 | 44 | 1025.1 | |
| 20260905164911 | 79 | 0.0 | 0.0 | 0.00 | 0.00 | 0.00 | 44 | 1025.1 | |
| 20260905164412 | 79 | 0.0 | 0.0 | 0.00 | 0.00 | 0.00 | 45 | 1025.1 | |
| 20260905163912 | 80 | 0.0 | 0.0 | 0.00 | 0.00 | 0.00 | 45 | 1025.1 | |
| 20260905163412 | 80 | 0.0 | 0.0 | 0.00 | 0.00 | 0.00 | 46 | 1025.1 | |
| 20260905162911 | 80 | 0.0 | 0.0 | 0.00 | 0.00 | 0.00 | 46 | 1025.0 | |
| 20260905161911 | 80 | 0.0 | 0.0 | 0.00 | 0.00 | 0.00 | 45 | 1025.0 | |
| 20260905161411 | 81 | 0.0 | 0.0 | 0.00 | 0.00 | 0.00 | 44 | 1025.0 | |
| 20260905160911 | 81 | 0.0 | 0.0 | 0.00 | 0.00 | 0.00 | 45 | 1025.0 | |
| 20260905160412 | 81 | 0.0 | 0.0 | 0.00 | 0.00 | 0.00 | 44 | 1025.0 | |
| 20260905155912 | 81 | 0.0 | 0.0 | 0.00 | 0.00 | 0.00 | 44 | 1025.0 | |
| 20260905155412 | 81 | 0.0 | 0.0 | 0.00 | 0.00 | 0.00 | 44 | 1024.9 | |
| 20260905153912 | 81 | 0.0 | 0.0 | 0.00 | 0.00 | 0.00 | 44 | 1024.9 | |
| 20260905153412 | 81 | 0.0 | 0.0 | 0.00 | 0.00 | 0.00 | 43 | 1025.0 | |
| 20260905152912 | 81 | 0.0 | 0.0 | 0.00 | 0.00 | 0.00 | 43 | 1025.0 | |
| 20260905152412 | 82 | 0.0 | 0.0 | 0.00 | 0.00 | 0.00 | 43 | 1025.0 | |
| 20260905151912 | 82 | 0.0 | 0.0 | 0.00 | 0.00 | 0.00 | 43 | 1025.1 | |
| 20260905151412 | 82 | 0.0 | 0.0 | 0.00 | 0.00 | 0.00 | 44 | 1025.1 | |
| 20260905145911 | 82 | 0.0 | 0.0 | 0.00 | 0.00 | 0.00 | 43 | 1025.2 | |
| 20260905145412 | 82 | 0.0 | 0.0 | 0.00 | 0.00 | 0.00 | 44 | 1025.2 | |
| 20260905144912 | 82 | 0.0 | 0.0 | 0.00 | 0.00 | 0.00 | 45 | 1025.2 | |
| 20260905143913 | 82 | 0.0 | 0.0 | 0.00 | 0.00 | 0.00 | 46 | 1025.2 | |
| 20260905143411 | 82 | 0.0 | 0.0 | 0.00 | 0.00 | 0.00 | 46 | 1025.4 | |
| 20260905142911 | 82 | 0.0 | 0.0 | 0.00 | 0.00 | 0.00 | 46 | 1025.4 | |
| 20260905142412 | 82 | 0.0 | 0.0 | 0.00 | 0.00 | 0.00 | 48 | 1025.4 | |
| 20260905141912 | 82 | 0.0 | 0.0 | 0.00 | 0.00 | 0.00 | 49 | 1025.5 | |
| 20260905141412 | -27 | 0.0 | 0.0 | 0.00 | 0.00 | 0.00 | 100 | 1216.3 | |
| 20260905140412 | 82 | 0.0 | 0.0 | 0.00 | 0.00 | 0.00 | 49 | 1025.6 | |
| 20260905134912 | 82 | 0.0 | 0.0 | 0.00 | 0.00 | 0.00 | 48 | 1025.6 | |
| 20260905134412 | 82 | 0.0 | 0.0 | 0.00 | 0.00 | 0.00 | 48 | 1025.5 | |
| 20260905132912 | 82 | 0.0 | 0.0 | 0.00 | 0.00 | 0.00 | 50 | 1025.6 | |
| 20260905132413 | 82 | 0.0 | 0.0 | 0.00 | 0.00 | 0.00 | 51 | 1025.7 | |
| 20260905131911 | 82 | 0.0 | 0.0 | 0.00 | 0.00 | 0.00 | 53 | 1025.7 | |
| 20260905130413 | 82 | 0.0 | 0.0 | 0.00 | 0.00 | 0.00 | 57 | 1025.8 | |
| 20260905125912 | 81 | 0.0 | 0.0 | 0.00 | 0.00 | 0.00 | 59 | 1025.8 | |
| 20260905125412 | 80 | 0.0 | 0.0 | 0.00 | 0.00 | 0.00 | 60 | 1025.8 | |
| 20260905124912 | 81 | 0.0 | 0.0 | 0.00 | 0.00 | 0.00 | 63 | 1025.8 | |
| 20260905124412 | 80 | 0.0 | 0.0 | 0.00 | 0.00 | 0.00 | 61 | 1025.7 | |
| 20260905123412 | 81 | 0.0 | 0.0 | 0.00 | 0.00 | 0.00 | 61 | 1025.8 | |
| 20260905122412 | 82 | 0.0 | 0.0 | 0.00 | 0.00 | 0.00 | 72 | 1025.9 | |
| 20260905121912 | 79 | 0.0 | 0.0 | 0.00 | 0.00 | 0.00 | 78 | 1025.9 | |
| 20260905121411 | 79 | 0.0 | 0.0 | 0.00 | 0.00 | 0.00 | 79 | 1026.0 | |
| 20260905120911 | 79 | 0.0 | 0.0 | 0.00 | 0.00 | 0.00 | 79 | 1026.0 | |
| 20260905115912 | 79 | 0.0 | 0.0 | 0.00 | 0.00 | 0.00 | 84 | 1026.1 | |
| 20260905115411 | 78 | 0.0 | 0.0 | 0.00 | 0.00 | 0.00 | 82 | 1026.2 | |
| 20260905114911 | 78 | 0.0 | 0.0 | 0.00 | 0.00 | 0.00 | 85 | 1026.3 | |
| 20260905114411 | 79 | 0.0 | 0.0 | 0.00 | 0.00 | 0.00 | 89 | 1026.3 | |
| 20260905113911 | 79 | 0.0 | 0.0 | 0.00 | 0.00 | 0.00 | 95 | 1026.3 | |
| 20260905113411 | 77 | 0.0 | 0.0 | 0.00 | 0.00 | 0.00 | 95 | 1026.3 | |
| 20260905112912 | 78 | 0.0 | 0.0 | 0.00 | 0.00 | 0.00 | 94 | 1026.4 | |
| 20260905112412 | 77 | 0.0 | 0.0 | 0.00 | 0.00 | 0.00 | 95 | 1026.4 | |
| 20260905111911 | 77 | 0.0 | 0.0 | 0.00 | 0.00 | 0.00 | 97 | 1026.4 | |
| 20260905110912 | -27 | 0.0 | 0.0 | 0.00 | 0.00 | 0.00 | 100 | 1216.3 | |
| 20260905110412 | -27 | 0.0 | 0.0 | 0.00 | 0.00 | 0.00 | 100 | 1216.3 | |
| 20260905105912 | -27 | 0.0 | 0.0 | 0.00 | 0.00 | 0.00 | 100 | 1216.3 | |
| 20260905105412 | -27 | 0.0 | 0.0 | 0.00 | 0.00 | 0.00 | 100 | 1216.3 | |
| 20260905104912 | -27 | 0.0 | 0.0 | 0.00 | 0.00 | 0.00 | 100 | 1216.3 | |
| 20260905104412 | -27 | 0.0 | 0.0 | 0.00 | 0.00 | 0.00 | 100 | 1216.3 | |
| 20260905103912 | -27 | 0.0 | 0.0 | 0.00 | 0.00 | 0.00 | 100 | 1216.3 | |
| 20260905103412 | -27 | 0.0 | 0.0 | 0.00 | 0.00 | 0.00 | 100 | 1216.3 | |
| 20260905102912 | -27 | 0.0 | 0.0 | 0.00 | 0.00 | 0.00 | 100 | 1216.3 | |
| 20260905102412 | -27 | 0.0 | 0.0 | 0.00 | 0.00 | 0.00 | 100 | 1216.3 | |
| 20260905101912 | -27 | 0.0 | 0.0 | 0.00 | 0.00 | 0.00 | 100 | 1216.3 | |
| 20260905101412 | -27 | 0.0 | 0.0 | 0.00 | 0.00 | 0.00 | 100 | 1216.3 | |
| 20260905100912 | 76 | 0.0 | 0.0 | 0.00 | 0.00 | 0.00 | 100 | 1216.3 | |
| 20260905100412 | 76 | 0.0 | 0.0 | 0.00 | 0.00 | 0.00 | 10 | 1026.6 | |
| 20260905095412 | 73 | 0.0 | 0.0 | 0.00 | 0.00 | 0.00 | 10 | 1026.7 | |
| 20260905094912 | -27 | 0.0 | 0.0 | 0.00 | 0.00 | 0.00 | 100 | -55.9 | |
| 20260905094412 | 72 | 0.0 | 0.0 | 0.00 | 0.00 | 0.00 | 10 | 1026.5 | |
| 20260905093911 | 71 | 0.0 | 0.0 | 0.00 | 0.00 | 0.00 | 10 | 1026.6 | |
| 20260905093412 | 71 | 0.0 | 0.0 | 0.00 | 0.00 | 0.00 | 10 | 1026.6 | |
| 20260905092912 | 71 | 0.0 | 0.0 | 0.00 | 0.00 | 0.00 | 10 | 1026.6 | |
| 20260905092412 | 72 | 0.0 | 0.0 | 0.00 | 0.00 | 0.00 | 10 | 1026.4 | |
| 20260905091912 | 73 | 0.0 | 0.0 | 0.00 | 0.00 | 0.00 | 10 | 1026.4 | |
| 20260905091411 | 73 | 0.0 | 0.0 | 0.00 | 0.00 | 0.00 | 10 | 1026.3 | |
| 20260905090912 | 72 | 0.0 | 0.0 | 0.00 | 0.00 | 0.00 | 10 | 1026.4 | |
| 20260905090412 | 72 | 0.0 | 0.0 | 0.00 | 0.00 | 0.00 | 10 | 1026.3 | |
| 20260905085412 | 71 | 0.0 | 0.0 | 0.00 | 0.00 | 0.00 | 10 | 1026.1 | |
| 20260905084412 | 71 | 0.0 | 0.0 | 0.00 | 0.00 | 0.00 | 10 | 1026.1 | |
| 20260905083912 | 71 | 0.0 | 0.0 | 0.00 | 0.00 | 0.00 | 10 | 1026.1 | |
| 20260905083412 | 71 | 0.0 | 0.0 | 0.00 | 0.00 | 0.00 | 10 | 1026.1 | |
| 20260905082911 | 71 | 0.0 | 0.0 | 0.00 | 0.00 | 0.00 | 10 | 1026.1 | |
| 20260905081912 | 70 | 0.0 | 0.0 | 0.00 | 0.00 | 0.00 | 10 | 1026.1 | |
| 20260905081412 | 70 | 0.0 | 0.0 | 0.00 | 0.00 | 0.00 | 10 | 1026.1 | |
| 20260905080913 | 70 | 0.0 | 0.0 | 0.00 | 0.00 | 0.00 | 10 | 1026.1 | |
| 20260905080412 | 69 | 0.0 | 0.0 | 0.00 | 0.00 | 0.00 | 10 | 1026.0 | |
| 20260905075911 | 69 | 0.0 | 0.0 | 0.00 | 0.00 | 0.00 | 10 | 1026.0 | |
| 20260905075412 | 68 | 0.0 | 0.0 | 0.00 | 0.00 | 0.00 | 10 | 1026.0 | |
| 20260905074911 | 68 | 0.0 | 0.0 | 0.00 | 0.00 | 0.00 | 10 | 1026.0 | |
| 20260905073912 | 67 | 0.0 | 0.0 | 0.00 | 0.00 | 0.00 | 10 | 1026.0 | |
| 20260905073412 | 67 | 0.0 | 0.0 | 0.00 | 0.00 | 0.00 | 10 | 1026.1 | |
| 20260905072913 | 67 | 0.0 | 0.0 | 0.00 | 0.00 | 0.00 | 10 | 1026.0 | |
| 20260905072412 | 67 | 0.0 | 0.0 | 0.00 | 0.00 | 0.00 | 10 | 1026.0 | |
| 20260905071912 | 67 | 0.0 | 0.0 | 0.00 | 0.00 | 0.00 | 10 | 1025.9 | |
| 20260905071412 | 67 | 0.0 | 0.0 | 0.00 | 0.00 | 0.00 | 10 | 1025.9 | |
| 20260905070913 | 67 | 0.0 | 0.0 | 0.00 | 0.00 | 0.00 | 10 | 1025.8 | |
| 20260905070412 | 67 | 0.0 | 0.0 | 0.00 | 0.00 | 0.00 | 10 | 1025.8 | |
| 20260905065913 | 67 | 0.0 | 0.0 | 0.00 | 0.00 | 0.00 | 10 | 1025.7 | |
| 20260905065411 | 67 | 0.0 | 0.0 | 0.00 | 0.00 | 0.00 | 10 | 1025.6 | |
| 20260905064911 | 67 | 0.0 | 0.0 | 0.00 | 0.00 | 0.00 | 10 | 1025.7 | |
| 20260905064411 | 67 | 0.0 | 0.0 | 0.00 | 0.00 | 0.00 | 10 | 1025.6 | |
| 20260905063912 | 67 | 0.0 | 0.0 | 0.00 | 0.00 | 0.00 | 10 | 1025.6 | |
| 20260905062912 | 66 | 0.0 | 0.0 | 0.00 | 0.00 | 0.00 | 10 | 1025.5 | |
| 20260905061912 | 67 | 0.0 | 0.0 | 0.00 | 0.00 | 0.00 | 10 | 1025.4 | |
| 20260905061412 | 67 | 0.0 | 0.0 | 0.00 | 0.00 | 0.00 | 10 | 1025.3 | |
| 20260905060913 | 67 | 0.0 | 0.0 | 0.00 | 0.00 | 0.00 | 10 | 1025.3 | |
| 20260905060413 | 67 | 0.0 | 0.0 | 0.00 | 0.00 | 0.00 | 10 | 1025.2 | |
| 20260905055912 | 66 | 0.0 | 0.0 | 0.00 | 0.00 | 0.00 | 10 | 1025.1 | |
| 20260905054912 | 66 | 0.0 | 0.0 | 0.00 | 0.00 | 0.00 | 10 | 1025.1 | |
| 20260905054412 | 66 | 0.0 | 0.0 | 0.00 | 0.00 | 0.00 | 10 | 1025.0 | |
| 20260905053912 | 66 | 0.0 | 0.0 | 0.00 | 0.00 | 0.00 | 10 | 1024.9 | |
| 20260905053411 | 66 | 0.0 | 0.0 | 0.00 | 0.00 | 0.00 | 10 | 1024.8 | |
| 20260905052911 | 66 | 0.0 | 0.0 | 0.00 | 0.00 | 0.00 | 10 | 1024.7 | |
| 20260905052412 | 66 | 0.0 | 0.0 | 0.00 | 0.00 | 0.00 | 10 | 1024.7 | |
| 20260905051411 | 66 | 0.0 | 0.0 | 0.00 | 0.00 | 0.00 | 10 | 1024.6 | |
| 20260905050911 | 66 | 0.0 | 0.0 | 0.00 | 0.00 | 0.00 | 10 | 1024.5 | |
| 20260905050412 | 66 | 0.0 | 0.0 | 0.00 | 0.00 | 0.00 | 10 | 1024.5 | |
| 20260905045912 | 66 | 0.0 | 0.0 | 0.00 | 0.00 | 0.00 | 10 | 1024.5 | |
| 20260905045412 | 66 | 0.0 | 0.0 | 0.00 | 0.00 | 0.00 | 10 | 1024.5 | |
| 20260905044911 | 66 | 0.0 | 0.0 | 0.00 | 0.00 | 0.00 | 10 | 1024.4 | |
| 20260905043411 | 66 | 0.0 | 0.0 | 0.00 | 0.00 | 0.00 | 10 | 1024.3 | |
| 20260905042911 | 66 | 0.0 | 0.0 | 0.00 | 0.00 | 0.00 | 10 | 1024.3 | |
| 20260905042411 | 66 | 0.0 | 0.0 | 0.00 | 0.00 | 0.00 | 10 | 1024.2 | |
| 20260905041912 | 65 | 0.0 | 0.0 | 0.00 | 0.00 | 0.00 | 10 | 1024.2 | |
| 20260905041412 | 65 | 0.0 | 0.0 | 0.00 | 0.00 | 0.00 | 10 | 1024.2 | |
| 20260905040412 | 65 | 0.0 | 0.0 | 0.00 | 0.00 | 0.00 | 10 | 1024.1 | |
| 20260905035411 | 65 | 0.0 | 0.0 | 0.00 | 0.00 | 0.00 | 10 | 1024.1 | |
| 20260905034912 | 65 | 0.0 | 0.0 | 0.00 | 0.00 | 0.00 | 10 | 1024.0 | |
| 20260905034412 | 64 | 0.0 | 0.0 | 0.00 | 0.00 | 0.00 | 10 | 1024.0 | |
| 20260905033912 | 64 | 0.0 | 0.0 | 0.00 | 0.00 | 0.00 | 10 | 1023.9 | |
| 20260905033412 | 64 | 0.0 | 0.0 | 0.00 | 0.00 | 0.00 | 10 | 1023.9 | |
| 20260905032412 | 64 | 0.0 | 0.0 | 0.00 | 0.00 | 0.00 | 10 | 1023.8 | |
| 20260905031911 | 64 | 0.0 | 0.0 | 0.00 | 0.00 | 0.00 | 10 | 1023.8 | |
| 20260905031411 | 64 | 0.0 | 0.0 | 0.00 | 0.00 | 0.00 | 10 | 1023.7 | |
| 20260905025913 | 64 | 0.0 | 0.0 | 0.00 | 0.00 | 0.00 | 10 | 1023.8 | |
| 20260905025414 | 64 | 0.0 | 0.0 | 0.00 | 0.00 | 0.00 | 10 | 1023.9 | |
| 20260905024915 | 64 | 0.0 | 0.0 | 0.00 | 0.00 | 0.00 | 10 | 1023.8 | |
| 20260905024412 | 64 | 0.0 | 0.0 | 0.00 | 0.00 | 0.00 | 10 | 1023.6 | |
| 20260905023912 | 64 | 0.0 | 0.0 | 0.00 | 0.00 | 0.00 | 10 | 1023.6 | |
| 20260905023411 | 64 | 0.0 | 0.0 | 0.00 | 0.00 | 0.00 | 10 | 1023.7 | |
| 20260905022412 | 64 | 0.0 | 0.0 | 0.00 | 0.00 | 0.00 | 10 | 1023.6 | |
| 20260905021412 | 64 | 0.0 | 0.0 | 0.00 | 0.00 | 0.00 | 10 | 1023.4 | |
| 20260905015912 | 64 | 0.0 | 0.0 | 0.00 | 0.00 | 0.00 | 10 | 1023.3 | |
| 20260905015412 | 64 | 0.0 | 0.0 | 0.00 | 0.00 | 0.00 | 10 | 1023.2 | |
| 20260905014913 | 64 | 0.0 | 0.0 | 0.00 | 0.00 | 0.00 | 10 | 1023.4 | |
| 20260905014413 | 64 | 0.0 | 0.0 | 0.00 | 0.00 | 0.00 | 10 | 1023.3 | |
| 20260905013911 | 64 | 0.0 | 0.0 | 0.00 | 0.00 | 0.00 | 10 | 1023.3 | |
| 20260905013412 | 64 | 0.0 | 0.0 | 0.00 | 0.00 | 0.00 | 10 | 1023.2 | |
| 20260905012912 | 64 | 0.0 | 0.0 | 0.00 | 0.00 | 0.00 | 10 | 1023.2 | |
| 20260905012412 | 64 | 0.0 | 0.0 | 0.00 | 0.00 | 0.00 | 10 | 1023.2 | |
| 20260905011912 | 64 | 0.0 | 0.0 | 0.00 | 0.00 | 0.00 | 10 | 1023.2 | |
| 20260905011411 | 64 | 0.0 | 0.0 | 0.00 | 0.00 | 0.00 | 10 | 1023.1 | |
| 20260905010912 | 64 | 0.0 | 0.0 | 0.00 | 0.00 | 0.00 | 10 | 1023.1 | |
| 20260905010412 | 64 | 0.0 | 0.0 | 0.00 | 0.00 | 0.00 | 10 | 1023.2 | |
| 20260905005912 | 64 | 0.0 | 0.0 | 0.00 | 0.00 | 0.00 | 10 | 1023.1 | |
| 20260905005412 | 64 | 0.0 | 0.0 | 0.00 | 0.00 | 0.00 | 10 | 1023.2 | |
| 20260905004912 | 64 | 0.0 | 0.0 | 0.00 | 0.00 | 0.00 | 10 | 1023.0 | |
| 20260905004411 | 64 | 0.0 | 0.0 | 0.00 | 0.00 | 0.00 | 10 | 1023.1 | |
| 20260905003911 | 64 | 0.0 | 0.0 | 0.00 | 0.00 | 0.00 | 10 | 1023.0 | |
| 20260905003411 | 64 | 0.0 | 0.0 | 0.00 | 0.00 | 0.00 | 10 | 1023.0 | |
| 20260905002912 | 64 | 0.0 | 0.0 | 0.00 | 0.00 | 0.00 | 10 | 1022.9 | |
| 20260905001411 | 64 | 0.0 | 0.0 | 0.00 | 0.00 | 0.00 | 10 | 1022.8 | |
| 20260905000911 | 64 | 0.0 | 0.0 | 0.00 | 0.00 | 0.00 | 10 | 1022.7 | |
| 20260905000412 | 64 | 0.0 | 0.0 | 0.00 | 0.00 | 0.00 | 10 | 1022.7 | |
| 20260904235912 | 64 | 0.0 | 0.0 | 0.00 | 0.00 | 0.00 | 10 | 1022.6 | |
| 20260904235411 | 64 | 0.0 | 0.0 | 0.00 | 0.00 | 0.00 | 10 | 1022.7 | |
| 20260904234911 | 64 | 0.0 | 0.0 | 0.00 | 0.00 | 0.00 | 10 | 1022.5 | |
| 20260904233912 | 64 | 0.0 | 0.0 | 0.00 | 0.00 | 0.00 | 10 | 1022.5 | |
| 20260904233412 | 64 | 0.0 | 0.0 | 0.00 | 0.00 | 0.00 | 10 | 1022.5 | |
| 20260904232912 | 64 | 0.0 | 0.0 | 0.00 | 0.00 | 0.00 | 10 | 1022.6 | |
| 20260904232412 | 64 | 0.0 | 0.0 | 0.00 | 0.00 | 0.00 | 10 | 1022.7 | |
| 20260904231911 | 64 | 0.0 | 0.0 | 0.00 | 0.00 | 0.00 | 10 | 1022.6 | |
| 20260904231412 | 64 | 0.0 | 0.0 | 0.00 | 0.00 | 0.00 | 10 | 1022.6 | |
| 20260904230912 | 64 | 0.0 | 0.0 | 0.00 | 0.00 | 0.00 | 10 | 1022.5 | |
| 20260904230413 | 64 | 0.0 | 0.0 | 0.00 | 0.00 | 0.00 | 10 | 1022.4 | |
| 20260904225913 | 64 | 0.0 | 0.0 | 0.00 | 0.00 | 0.00 | 10 | 1022.3 | |
| 20260904225411 | 64 | 0.0 | 0.0 | 0.00 | 0.00 | 0.00 | 10 | 1022.3 |